Location: Wingville
(42.9917°N, 90.4915°W)
Time: 11:10:56
(UTC+00:00)

LO-87 - Visible Passes

Search period start: 25 June 2022 00:00
Search period end: 05 July 2022 00:00
Orbit: 454 x 468 km, 97.4° (Epoch: 25 June)

Date Brightness Start Highest point End Pass type
(mag) Time Alt. Az. Time Alt. Az. Time Alt. Az.
25 Jun ? 04:42:57 18° ENE 04:43:04 18° ENE 04:45:30 10° NNE visible
25 Jun ? 06:16:50 23° WNW 06:16:50 23° WNW 06:18:49 10° NW visible
26 Jun ? 05:45:00 50° NW 05:45:00 50° NW 05:47:43 10° NNW visible
27 Jun ? 05:13:10 39° NE 05:13:10 39° NE 05:16:05 10° N visible
27 Jun ? 06:47:03 10° WNW 06:47:03 10° WNW 06:47:08 10° WNW visible
28 Jun ? 04:41:19 17° ENE 04:41:27 17° ENE 04:43:48 10° NNE visible
28 Jun ? 06:15:11 24° WNW 06:15:11 24° WNW 06:17:14 10° NW visible
29 Jun ? 05:43:19 51° NNW 05:43:19 51° NNW 05:46:02 10° NNW visible
30 Jun ? 05:11:25 37° NE 05:11:25 37° NE 05:14:18 10° N visible
30 Jun ? 06:45:17 11° WNW 06:45:17 11° WNW 06:45:37 10° WNW visible
01 Jul ? 04:39:30 17° ENE 04:39:39 17° ENE 04:41:54 10° NNE visible
01 Jul ? 06:13:23 25° WNW 06:13:23 25° WNW 06:15:27 10° NW visible
02 Jul ? 05:41:27 52° NNW 05:41:27 52° NNW 05:44:09 10° NNW visible
03 Jul ? 05:09:30 35° NE 05:09:30 35° NE 05:12:19 10° N visible
03 Jul ? 06:43:22 11° WNW 06:43:22 11° WNW 06:43:52 10° WNW visible
04 Jul ? 04:37:31 16° ENE 04:37:39 16° ENE 04:39:48 10° NNE visible
04 Jul ? 06:11:23 26° WNW 06:11:23 26° WNW 06:13:29 10° NNW visible
